ITASat 1
1 43786U 18099AE  24241.86893084  .00014143  00000-0  97763-3 0  9992
2 43786  97.5041 297.1190 0018498 105.0954 255.2321 15.05691770313502
EAGLET 1
1 43790U 18099AJ  24241.39326715  .00010026  00000-0  72981-3 0  9998
2 43790  97.5215 297.1423 0014677  86.1160 274.1743 15.03892208313125
ESEO
1 43792U 18099AL  24242.12189075  .00004455  00000-0  36027-3 0  9998
2 43792  97.5127 294.2456 0010189  73.5720 286.6624 15.00233245313133
CSIM
1 43793U 18099AM  24241.41994409  .00051238  00000-0  23711-2 0  9991
2 43793  97.5240 305.6826 0011414  67.6888 292.5555 15.19891529313739
JO-97
1 43803U 18099AX  24241.41517394  .00020793  00000-0  13006-2 0  9995
2 43803  97.5146 298.5424 0010441  62.9738 297.2555 15.09398053313589
Suomi 100
1 43804U 18099AY  24242.10432098  .00019736  00000-0  12644-2 0  9992
2 43804  97.5219 298.9906 0016009  56.5819 303.6938 15.08468514313660
ISAT
1 43879U 18111D   24242.49036561  .00026693  00000-0  15043-2 0  9992
2 43879  97.6100 147.9286 0015199 105.9506 254.3401 15.13072140308479
UWE-4
1 43880U 18111E   24241.46948909  .00026254  00000-0  15316-2 0  9994
2 43880  97.6026 146.7370 0018543 117.2336 243.0786 15.11783187310340
Sparrow
1 43881U 18111F   24242.50141561  .00027040  00000-0  15008-2 0  9992
2 43881  97.6195 149.9879 0011717 137.7828 222.4307 15.13655220308565
Prox-1
1 44339U 19036A   24241.98982732  .00022916  00000-0  37790-2 0  9991
2 44339  23.9979 116.3619 0008045  88.7138 271.4278 14.68998164276049
SONATE
1 44400U 19038Q   24241.51223222  .00048720  00000-0  12738-2 0  9999
2 44400  97.7154 239.0573 0014375 195.5378 164.5427 15.38500036285188
Taurus 1
1 44530U 19059C   24242.76725862  .00015042  00000-0  33465-2 0  9992
2 44530  98.5808   4.9797 0011639 188.6635 171.4363 14.57003654262470
Duchifat 3
1 44854U 19089C   24242.53637991  .00032432  00000-0  14767-2 0  9990
2 44854  36.9560 322.6716 0005273   1.8458 358.2308 15.19836357259357
TO-108
1 44881U 19093C   24242.81067700  .00003229  00000-0  39250-3 0  9998
2 44881  97.8240 318.1722 0015640  83.3792 276.9202 14.84097907253961
FloripaSat 1
1 44885U 19093G   24242.84429317  .00012751  00000-0  12720-2 0  9993
2 44885  97.8378 324.9062 0013094  74.9720 285.2947 14.91615428254341
RS-44
1 44909U 19096E   24242.21063132  .00000045  00000-0  14103-3 0  9994
2 44909  82.5186  56.2390 0216624 240.3538 117.5835 12.79733359218368
UPMSat 2
1 46276U 20061E   24241.43464400  .00038010  00000-0  10329-2 0  9991
2 46276  97.2909 306.9722 0001403 169.9173 190.2100 15.37465077221267
AmicalSat
1 46287U 20061R   24242.18796395  .00076649  00000-0  16265-2 0  9992
2 46287  97.3416 309.7840 0000938 261.2708  98.8434 15.44771549220801
SALSAT
1 46495U 20068K   24241.39015320  .00015631  00000-0  84614-3 0  9992
2 46495  97.8214 202.5884 0015632  71.2395 289.0530 15.14626475215235
UVSQ-SAT
1 47438U 21006AB  24242.07703502  .00173679  00000-0  19680-2 0  9992
2 47438  97.3159 304.1181 0004323 269.4762  90.6000 15.61813670200058
SOMP 2b
1 47445U 21006AJ  24242.72228558  .00126747  00000-0  17971-2 0  9990
2 47445  97.3121 302.5800 0004250 295.1076  64.9738 15.56009368200044
IDEASSat
1 47458U 21006AX  24242.41130204  .00099379  00000-0  16747-2 0  9990
2 47458  97.3245 302.5178 0004047 302.1844  57.9015 15.51326489199902
CubeSX-Sirius-HSE
1 47951U 21022V   24242.86785829  .00037811  00000-0  12938-2 0  9995
2 47951  97.4493 141.2104 0010739 226.3204 133.7148 15.30092043189828
CubeSX-HSE
1 47952U 21022W   24242.81514299  .00040980  00000-0  13930-2 0  9996
2 47952  97.4491 141.2646 0010738 225.0560 134.9810 15.30287953189823
KSU-Cubesat
1 47954U 21022Y   24242.24838271  .00055973  00000-0  16750-2 0  9995
2 47954  97.4502 142.4026 0009486 215.8041 144.2567 15.34306758189565
GRBAlpha
1 47959U 21022AD  24242.84052440  .00039403  00000-0  13368-2 0  9994
2 47959  97.4494 141.4512 0010579 224.6009 135.4381 15.30361569188658
Orbicraft-Zorkiy
1 47960U 21022AE  24242.85640512  .00049617  00000-0  15459-2 0  9991
2 47960  97.4537 143.0431 0009598 216.8167 143.2417 15.33055746189426
TUBIN
1 48900U 21059X   24242.81485521  .00032103  00000-0  98634-3 0  9998
2 48900  97.6540  29.7985 0006607 184.6157 175.5025 15.33627274176194
LEDSAT
1 49069U 21073D   24241.43095517  .00040005  00000-0  14361-2 0  9994
2 49069  97.4315 312.2166 0017574  32.2169 328.0141 15.28419978167475
CUTE
1 49263U 21088D   24242.13761907  .00041557  00000-0  17254-2 0  9994
2 49263  97.4905 307.8017 0013938 181.5670 178.5525 15.23622743160733
TeikyoSat 4
1 49396U 21102B   24241.86683797  .00006050  00000-0  42995-3 0  9997
2 49396  97.4548 284.3336 0013820  34.1009 326.1103 15.04966177153685
Z-Sat
1 49399U 21102E   24242.81663245  .00010072  00000-0  62926-3 0  9997
2 49399  97.4256 286.9975 0019811   9.5108 350.6492 15.09487439154096
KOSEN 1
1 49402U 21102H   24242.36928607  .00013740  00000-0  77915-3 0  9997
2 49402  97.4179 288.2850 0017628 353.9168   6.1847 15.12955184154209
HO-113
1 50466U 21131B   24242.86162901  .00001820  00000-0  59326-3 0  9995
2 50466  98.5261 327.5894 0003087 262.3828  97.7009 14.39871931140600
IRIS-A
1 51044U 22002BN  24242.46622619  .00044861  00000-0  12780-2 0  9993
2 51044  97.3779 308.8887 0006732 133.7887 226.3914 15.35935187145650
OreSat0
1 52017U 22026K   24242.00664388  .00309760  00000-0  20745-2 0  9991
2 52017  97.4855 260.4575 0002910 260.2863  99.8072 15.74373615137078
Planetum 1
1 52738U 22057G   24242.29872531  .00108357  00000-0  18243-2 0  9996
2 52738  97.5702  11.5564 0006164 246.9286 113.1316 15.51306693125860
Foresail-1
1 52766U 22057AL  24242.32220473  .00044098  00000-0  12410-2 0  9994
2 52766  97.5886   9.7840 0009026 230.1230 129.9220 15.36304827125661
SNUGLITE 2
1 52899U 22065F   24242.67793662  .00004441  00000-0  90919-3 0  9992
2 52899  98.1289  22.4567 0006636 285.2701  74.7767 14.61259812114995
IO-117
1 53106U 22080B   24228.11242500 -.00000003  00000-0  00000-0 0  9994
2 53106  70.1424 172.0499 0007747  94.1050 266.0495  6.42557430 49057
SelfieSat
1 53951U 22057BC  24242.35034442  .00947287  40232-3  25098-2 0  9995
2 53951  97.5574  18.0222 0011773 272.1230  87.8697 15.94605636126259
FO-118
1 54684U 22167C   24242.83925023  .00063691  00000-0  17844-2 0  9992
2 54684  97.6117  29.7371 0010033 246.0672 113.9521 15.36337225 95589
SSS-2B
1 56184U 23054G   24242.17359718  .00090363  00000-0  16437-2 0  9997
2 56184  97.3564 141.1091 0002056 231.2522 128.8546 15.49195710 77401
CIRBE
1 56188U 23054L   24241.45702802  .00263138  00000-0  19880-2 0  9994
2 56188  97.3440 143.9403 0005763 154.0605 206.0948 15.71646544 77559
INSPIRE-Sat 7
1 56211U 23054AK  24242.47430628  .00443219  00000-0  22204-2 0  9992
2 56211  97.3443 146.7302 0008460 153.5776 206.5924 15.80573588 77813
RoseyCubesat 1
1 56212U 23054AL  24242.65224740  .02358097  76155-2  20958-2 0  9990
2 56212  97.3416 148.8409 0010094 177.8547 182.2784 16.14756972 77964
SO-120
1 56992U 23084BU  24242.58905642  .00071215  00000-0  20878-2 0  9994
2 56992  97.5352   3.0673 0009878 130.9515 229.2584 15.34879249 67411
MRC-100
1 56993U 23084BV  24242.30474654  .00087326  00000-0  22910-2 0  9998
2 56993  97.5344   3.4710 0008380 132.1901 228.0057 15.38285953 67429
UmKA 1 (RS40S)
1 57172U 23091G   24242.84631530  .00011276  00000-0  71762-3 0  9994
2 57172  97.6054 294.1797 0015608 225.9865 134.0078 15.08852508 64590
CubeBel-2 (EU11S)
1 57175U 23091K   24242.82087418  .00015680  00000-0  96652-3 0  9993
2 57175  97.6063 294.2014 0013734 237.5157 122.4745 15.09964387 64599
VERONIKA
1 58261U 23174F   24242.78612236  .00034554  00000-0  13699-2 0  9999
2 58261  97.4552 317.0560 0010233 346.7513  13.3454 15.25260491 44919
KAFASAT
1 58317U 23174BP  24242.29246889  .00053464  00000-0  18450-2 0  9995
2 58317  97.4495 317.5004 0008961 318.7682  41.2881 15.29746213 44915
ENSO
1 58470U 23185J   24242.83320165  .00029865  00000-0  11313-2 0  9996
2 58470  97.4203 308.9138 0011315  25.5632 334.6164 15.26797792 41363
EIRSAT-1
1 58472U 23185L   24242.83642847  .00034884  00000-0  12808-2 0  9999
2 58472  97.4197 309.0358 0010747  26.1399 334.0380 15.27802613 41373
SO-121
1 58567U 23174CY  24242.14505208  .00148333  00000-0  33954-2 0  9995
2 58567  97.4459 318.6103 0008856 309.7888  50.2578 15.42185912 44972
SONATE-2
1 59112U 24043Q   24241.60308775  .00027267  00000-0  12273-2 0  9991
2 59112  97.4850   4.7917 0014674  44.3405 315.9003 15.20958609 26805
MESAT1
1 60209U 24125G   24242.43743913  .00023469  00000-0  10484-2 0  9992
2 60209  97.3163  93.6514 0027379  69.3027 291.1140 15.21001021  8549
GRBBeta
1 60237U 24128C   24242.55616934  .00010072  00000-0  87216-3 0  9995
2 60237  61.9963 346.2951 0014660 324.8420  35.1700 14.97548459  7586
Curium One
1 60242U 24128H   24241.58287369  .00018137  00000-0  15806-2 0  9994
2 60242  61.9871 349.8271 0016223 307.5711  52.3903 14.96900313  7443
ROBUSTA-3A
1 60243U 24128J   24242.19061383  .00015151  00000-0  13306-2 0  9995
2 60243  61.9937 347.8244 0014787 301.3784  58.5856 14.96715070  7539
CatSat
1 60246U 24125J   24241.54950411  .00018991  00000-0  84421-3 0  9994
2 60246  97.3016  94.0227 0052999  23.5634  33.6688 15.20266002  6528
